DW4699 Reston VA US current weather conditions

sailwx.info

Wind from 178 at 0 knots gusting 3

Air temperature 6.1° C
Dewpoint -1.5° C

Last reported at 2020-Jan-28 22:08 UTC.
Time now 2020-Jan-28 22:49 UTC

Location: N 38°59' W 077°21'.
View on Google Maps.

See reports from other nearby stations

  
Tides and Currents Weather Stations Pressure Air Temp Water Temp Dewpoint Dewpoint Depression Visibility Wind Speed Wind Dir Waves Ship Positions
date/time (UTC)wind fromknots sea level pressurealtimeterstation pressurevisibilityair tempwater tempwave heightnotes
2020-Jan-28 22:08 178 0 gusting 3 6.1
2020-Jan-28 22:03 237 0 gusting 6 6.1
2020-Jan-28 21:58 241 6.1
2020-Jan-28 21:53 220 1 gusting 6 6.1
2020-Jan-28 21:48 290 0 gusting 6 6.1
2020-Jan-28 21:43 326 1 gusting 6 6.1
2020-Jan-28 21:38 321 6.1
2020-Jan-28 21:33 360 0 gusting 9 6.1
2020-Jan-28 21:28 017 6.1
2020-Jan-28 21:23 134 6.1
2020-Jan-28 21:18 238 1 gusting 5 6.7
2020-Jan-28 21:13 009 0 gusting 5 6.7
2020-Jan-28 21:08 215 1 gusting 5 6.7
2020-Jan-28 21:03 245 6.7
2020-Jan-28 20:58 232 6.7
2020-Jan-28 20:53 270 0 gusting 10 6.7
2020-Jan-28 20:48 217 2 gusting 10 6.7
2020-Jan-28 20:43 311 0 gusting 3 6.7
2020-Jan-28 20:38 267 6.7
2020-Jan-28 20:33 329 0 gusting 7 6.7
2020-Jan-28 20:28 225 0 gusting 7 6.7
2020-Jan-28 20:23 219 2 gusting 6 6.7
2020-Jan-28 20:18 213 0 gusting 9 6.7
2020-Jan-28 20:13 319 6.7
2020-Jan-28 20:08 022 6.7
2020-Jan-28 20:03 022 3 gusting 6 6.7
2020-Jan-28 19:58 224 1 gusting 5 6.1
2020-Jan-28 19:53 230 0 gusting 4 6.1
2020-Jan-28 19:48 217 1 gusting 4 6.1
2020-Jan-28 19:43 243 0 gusting 6 6.1
2020-Jan-28 19:38 334 1 gusting 6 6.1
2020-Jan-28 19:33 242 0 gusting 5 6.1
2020-Jan-28 19:28 035 6.1
2020-Jan-28 19:23 012 0 gusting 5 6.1
2020-Jan-28 19:18 026 6.1
2020-Jan-28 19:13 223 0 gusting 4 6.1
2020-Jan-28 19:08 312 6.1
2020-Jan-28 19:03 319 1 gusting 5 6.1
2020-Jan-28 18:58 215 1 gusting 5 6.1
2020-Jan-28 18:53 228 6.1
2020-Jan-28 18:48 273 6.1
2020-Jan-28 18:43 229 6.1
2020-Jan-28 18:38 354 6.1
2020-Jan-28 18:33 219 6.7
2020-Jan-28 18:28 015 6.1
2020-Jan-28 18:23 251 1 gusting 5 6.1
2020-Jan-28 18:18 226 0 gusting 5 6.1
2020-Jan-28 18:13 237 0 gusting 5 6.1
2020-Jan-28 18:08 256 0 gusting 3 6.1
2020-Jan-28 18:03 200 6.1
2020-Jan-28 17:58 200 0 gusting 6 6.1
2020-Jan-28 17:53 246 6.1
2020-Jan-28 17:48 193 0 gusting 3 5.6
2020-Jan-28 17:43 351 0 gusting 6 6.1
2020-Jan-28 17:38 003 1 gusting 8 6.1
2020-Jan-28 17:33 305 2 gusting 8 6.1
2020-Jan-28 17:28 018 0 gusting 6 6.1
2020-Jan-28 17:23 208 2 gusting 6 6.1
2020-Jan-28 17:18 298 0 gusting 8 6.1
2020-Jan-28 17:13 305 0 gusting 8 6.1
2020-Jan-28 17:08 236 0 gusting 3 6.1
2020-Jan-28 17:03 259 0 gusting 5 6.1
2020-Jan-28 16:58 019 0 gusting 5 6.1
2020-Jan-28 16:53 010 0 gusting 8 6.1
2020-Jan-28 16:48 314 6.1
2020-Jan-28 16:43 305 0 gusting 2 6.1
2020-Jan-28 16:38 222 6.1
2020-Jan-28 16:33 212 2 gusting 6 6.1
2020-Jan-28 16:28 219 0 gusting 5 6.1
2020-Jan-28 16:23 272 0 gusting 3 6.1
2020-Jan-28 16:18 328 0 gusting 6 6.1
2020-Jan-28 16:13 360 2 gusting 7 6.1
2020-Jan-28 16:08 226 0 gusting 7 6.1
2020-Jan-28 16:03 294 0 gusting 6 6.1
2020-Jan-28 15:58 271 0 gusting 7 6.1
2020-Jan-28 15:53 222 1 gusting 12 5.6
2020-Jan-28 15:48 336 2 gusting 12 6.1
2020-Jan-28 15:43 232 0 gusting 11 6.1
2020-Jan-28 15:38 230 1 gusting 4 6.1
2020-Jan-28 15:33 322 0 gusting 6 6.1
2020-Jan-28 15:28 270 0 gusting 7 6.1
2020-Jan-28 15:23 282 3 gusting 7 5.6
2020-Jan-28 15:18 350 1 gusting 6 5.6
2020-Jan-28 15:13 203 5.6
2020-Jan-28 15:08 234 5.6
2020-Jan-28 15:03 244 5.0
2020-Jan-28 14:58 219 5.0
2020-Jan-28 14:53 235 5.0
2020-Jan-28 14:48 251 5.0
2020-Jan-28 14:43 343 5.0
2020-Jan-28 14:38 041 5.0
2020-Jan-28 14:33 203 4.4
2020-Jan-28 14:28 226 4.4
2020-Jan-28 14:23 218 1 gusting 5 4.4
2020-Jan-28 14:18 190 0 gusting 4 4.4
2020-Jan-28 14:13 028 4.4
2020-Jan-28 14:08 212 1 gusting 5 4.4
2020-Jan-28 14:03 221 1 gusting 4 4.4
2020-Jan-28 13:58 242 0 gusting 4 4.4
2020-Jan-28 13:53 222 4.4
2020-Jan-28 13:48 214 0 gusting 7 4.4
2020-Jan-28 13:43 211 3.9
2020-Jan-28 13:38 216 0 gusting 5 3.9
2020-Jan-28 13:33 305 3.9
2020-Jan-28 13:28 291 3.9
2020-Jan-28 13:23 244 3.9
2020-Jan-28 13:18 244 3.9
2020-Jan-28 13:13 005 0 gusting 3 3.9
2020-Jan-28 13:08 332 3.9
2020-Jan-28 13:03 332 0 gusting 3 3.3
2020-Jan-28 12:58 213 3.3
2020-Jan-28 12:53 024 3.3
2020-Jan-28 12:48 024 3.3
2020-Jan-28 12:43 024 3.3
2020-Jan-28 12:38 026 0 gusting 2 3.3
2020-Jan-28 12:33 293 3.3
2020-Jan-28 12:28 294 3.3
2020-Jan-28 12:23 294 3.3
2020-Jan-28 12:18 294 3.3
2020-Jan-28 12:13 323 3.9
2020-Jan-28 12:08 239 3.9
2020-Jan-28 12:03 242 3.9
2020-Jan-28 11:58 242 0 gusting 4 3.9
2020-Jan-28 11:53 243 3.9
2020-Jan-28 11:48 243 3.9
2020-Jan-28 11:43 251 0 gusting 5 3.9
2020-Jan-28 11:38 259 3.9
2020-Jan-28 11:33 317 3.9
2020-Jan-28 11:28 240 3.9
2020-Jan-28 11:23 036 3.9
2020-Jan-28 11:18 329 3.9
2020-Jan-28 11:13 332 3.9
2020-Jan-28 11:08 305 3.9
2020-Jan-28 11:03 305 3.9
2020-Jan-28 10:58 305 3.9
2020-Jan-28 10:53 306 1 gusting 11 3.9
2020-Jan-28 10:48 286 3.9
2020-Jan-28 10:43 231 3.9
2020-Jan-28 10:38 188 3.9
2020-Jan-28 10:33 246 0 gusting 4 3.9
2020-Jan-28 10:28 221 3.9
2020-Jan-28 10:23 019 0 gusting 3 3.9
2020-Jan-28 10:18 334 3.9
2020-Jan-28 10:13 305 3.9
2020-Jan-28 10:08 234 3.9
2020-Jan-28 10:03 233 3.9
2020-Jan-28 09:58 233 3.9
2020-Jan-28 09:53 002 3.9
2020-Jan-28 09:48 351 3.9
2020-Jan-28 09:43 205 3.9
2020-Jan-28 09:38 267 3.9
2020-Jan-28 09:33 212 3.9
2020-Jan-28 09:28 208 0 gusting 6 3.9
2020-Jan-28 09:23 228 0 gusting 7 3.9
2020-Jan-28 09:18 198 3.9
2020-Jan-28 09:13 235 3.9
2020-Jan-28 09:08 215 3.9
2020-Jan-28 09:03 214 3.9
2020-Jan-28 08:58 214 3.9
2020-Jan-28 08:53 223 3.9
2020-Jan-28 08:48 224 0 gusting 19 3.9
2020-Jan-28 08:43 275 0 gusting 17 3.9
2020-Jan-28 08:38 233 3.9
2020-Jan-28 08:33 233 2 gusting 13 3.9
2020-Jan-28 08:28 238 3.9
2020-Jan-28 08:23 236 3.9
2020-Jan-28 08:18 236 3.9
2020-Jan-28 08:13 332 3.9
2020-Jan-28 08:08 332 3.9
2020-Jan-28 08:03 333 0 gusting 5 3.9
2020-Jan-28 07:58 300 3.9
2020-Jan-28 07:53 299 3.9
2020-Jan-28 07:48 299 3.9
2020-Jan-28 07:43 239 3.9
2020-Jan-28 07:38 330 3.9
2020-Jan-28 07:33 221 3.9
2020-Jan-28 07:28 341 3.9
2020-Jan-28 07:23 223 3.9
2020-Jan-28 07:18 286 3.9
2020-Jan-28 07:13 236 3.9
2020-Jan-28 07:08 236 3.9
2020-Jan-28 07:03 229 3.9
2020-Jan-28 06:58 227 3.9
2020-Jan-28 06:53 229 3.9
2020-Jan-28 06:48 229 4.4
2020-Jan-28 06:43 224 4.4
2020-Jan-28 06:38 224 4.4
2020-Jan-28 06:33 221 0 gusting 1 4.4
2020-Jan-28 06:28 142 4.4
2020-Jan-28 06:23 141 4.4
2020-Jan-28 06:18 141 4.4
2020-Jan-28 06:13 240 4.4
2020-Jan-28 06:08 013 4.4
2020-Jan-28 06:03 313 4.4
2020-Jan-28 05:58 340 4.4
2020-Jan-28 05:53 340 4.4
2020-Jan-28 05:48 241 4.4
2020-Jan-28 05:43 265 4.4
2020-Jan-28 05:38 267 0 gusting 1 4.4
2020-Jan-28 05:33 211 4.4
2020-Jan-28 05:28 209 0 gusting 3 4.4
2020-Jan-28 05:23 213 0 gusting 3 4.4
2020-Jan-28 05:18 211 4.4
2020-Jan-28 05:13 205 0 gusting 4 4.4
2020-Jan-28 05:08 221 4.4
2020-Jan-28 05:03 221 0 gusting 4 4.4
2020-Jan-28 04:58 251 4.4
2020-Jan-28 04:53 251 4.4
2020-Jan-28 04:48 309 4.4
2020-Jan-28 04:43 243 4.4
2020-Jan-28 04:38 251 4.4
2020-Jan-28 04:33 299 4.4
2020-Jan-28 04:28 280 4.4
2020-Jan-28 04:23 307 4.4
2020-Jan-28 04:18 216 1 gusting 6 4.4
2020-Jan-28 04:13 328 4.4
2020-Jan-28 04:08 291 0 gusting 6 4.4
2020-Jan-28 04:03 218 4.4
2020-Jan-28 03:58 235 0 gusting 10 4.4
2020-Jan-28 03:53 284 4.4
2020-Jan-28 03:48 348 4.4
2020-Jan-28 03:43 275 4.4
2020-Jan-28 03:38 220 0 gusting 5 4.4
2020-Jan-28 03:33 002 4.4
2020-Jan-28 03:28 235 0 gusting 3 4.4
2020-Jan-28 03:23 236 5.0
2020-Jan-28 03:18 236 5.0
2020-Jan-28 03:13 234 5.0
2020-Jan-28 03:08 233 5.0
2020-Jan-28 03:03 233 5.0
2020-Jan-28 02:58 229 5.0
2020-Jan-28 02:53 228 5.0
2020-Jan-28 02:48 286 5.0
2020-Jan-28 02:43 291 5.0
2020-Jan-28 02:38 292 5.0
2020-Jan-28 02:33 292 5.0
2020-Jan-28 02:28 292 5.0
2020-Jan-28 02:23 292 5.0
2020-Jan-28 02:18 292 5.0
2020-Jan-28 02:13 292 5.0
2020-Jan-28 02:08 294 5.0
2020-Jan-28 02:03 268 0 gusting 1 5.0
2020-Jan-28 01:58 275 5.0
2020-Jan-28 01:53 288 5.0
2020-Jan-28 01:48 291 5.0
2020-Jan-28 01:43 342 5.0
2020-Jan-28 01:38 269 5.0
2020-Jan-28 01:33 313 5.0
2020-Jan-28 01:28 315 5.0
2020-Jan-28 01:23 274 5.0
2020-Jan-28 01:18 306 0 gusting 2 5.0
2020-Jan-28 01:13 297 5.0
2020-Jan-28 01:08 342 5.0
2020-Jan-28 01:03 321 5.0
2020-Jan-28 00:58 213 1 gusting 4 5.0
2020-Jan-28 00:53 340 5.0
2020-Jan-28 00:48 236 5.0
2020-Jan-28 00:43 236 0 gusting 6 5.0
2020-Jan-28 00:38 205 1 gusting 6 5.6
2020-Jan-28 00:33 210 5.6
2020-Jan-28 00:28 349 5.6
2020-Jan-28 00:23 269 5.6
2020-Jan-28 00:18 307 5.6
2020-Jan-28 00:13 238 0 gusting 3 5.6
2020-Jan-28 00:08 243 5.6
2020-Jan-28 00:03 017 5.6
2020-Jan-27 23:58 320 5.6
2020-Jan-27 23:53 306 5.6
2020-Jan-27 23:48 349 0 gusting 4 5.6
2020-Jan-27 23:43 229 0 gusting 7 5.6
2020-Jan-27 23:38 227 1 gusting 7 5.6
2020-Jan-27 23:33 220 3 gusting 8 5.6
2020-Jan-27 23:28 009 5.6
2020-Jan-27 23:23 230 1 gusting 8 5.6
2020-Jan-27 23:18 213 6.1
2020-Jan-27 23:13 226 1 gusting 4 6.1
2020-Jan-27 23:08 215 0 gusting 4 6.1
2020-Jan-27 23:03 272 6.1
2020-Jan-27 22:58 273 6.1
2020-Jan-27 22:53 222 1 gusting 4 6.1
2020-Jan-27 22:48 230 0 gusting 4 6.1
2020-Jan-27 22:43 225 1 gusting 5 6.1
2020-Jan-27 22:38 356 0 gusting 6 6.1
2020-Jan-27 22:33 320 0 gusting 6 6.1
2020-Jan-27 22:28 284 6.1
2020-Jan-27 22:23 210 6.1
2020-Jan-27 22:18 254 1 gusting 5 6.7
2020-Jan-27 22:13 002 0 gusting 5 6.7
2020-Jan-27 22:08 229 1 gusting 5 6.7
2020-Jan-27 22:03 283 0 gusting 4 6.7
2020-Jan-27 21:58 275 0 gusting 6 6.7
2020-Jan-27 21:53 226 4 gusting 6 6.7
2020-Jan-27 21:48 038 1 gusting 6 6.7
2020-Jan-27 21:43 244 0 gusting 7 6.7
2020-Jan-27 21:38 217 0 gusting 7 6.7
2020-Jan-27 21:33 234 6.7
2020-Jan-27 21:28 250 2 gusting 6 7.2
2020-Jan-27 21:23 236 2 gusting 6 7.2
2020-Jan-27 21:18 232 0 gusting 6 7.2
2020-Jan-27 21:13 352 2 gusting 6 7.2
2020-Jan-27 21:08 249 1 gusting 7 7.2
2020-Jan-27 21:03 240 2 gusting 7 7.2
2020-Jan-27 20:58 237 1 gusting 6 7.2
2020-Jan-27 20:53 207 1 gusting 6 7.2
2020-Jan-27 20:48 300 0 gusting 6 7.2
2020-Jan-27 20:43 005 2 gusting 6 7.8
2020-Jan-27 20:38 259 1 gusting 6 7.8
2020-Jan-27 20:33 219 0 gusting 5 7.8
2020-Jan-27 20:28 219 7.8
2020-Jan-27 20:23 223 1 gusting 5 7.8
2020-Jan-27 20:18 207 1 gusting 7 7.8
2020-Jan-27 20:13 314 4 gusting 7 7.8
2020-Jan-27 20:08 209 2 gusting 6 7.8
2020-Jan-27 20:03 234 2 gusting 6 7.8
2020-Jan-27 19:58 228 1 gusting 6 7.8
2020-Jan-27 19:53 213 2 gusting 6 7.8
2020-Jan-27 19:48 213 2 gusting 6 7.8
2020-Jan-27 19:43 205 0 gusting 5 8.3
2020-Jan-27 19:38 221 1 gusting 5 8.3
2020-Jan-27 19:33 219 1 gusting 6 8.3
2020-Jan-27 19:28 235 0 gusting 6 8.3
2020-Jan-27 19:23 222 2 gusting 6 8.3
2020-Jan-27 19:18 207 1 gusting 7 8.3
2020-Jan-27 19:13 226 1 gusting 6 8.3
2020-Jan-27 19:08 205 1 gusting 5 8.3
2020-Jan-27 19:03 207 8.3
2020-Jan-27 18:58 228 2 gusting 7 8.3
2020-Jan-27 18:53 225 2 gusting 6 8.3
2020-Jan-27 18:48 225 3 gusting 6 8.3
2020-Jan-27 18:43 202 4 gusting 6 8.3
2020-Jan-27 18:38 213 2 gusting 5 8.3
2020-Jan-27 18:33 332 1 gusting 5 8.3
2020-Jan-27 18:28 205 1 gusting 5 8.3
2020-Jan-27 18:23 213 0 gusting 5 7.8
2020-Jan-27 18:18 217 0 gusting 6 7.8
2020-Jan-27 18:13 218 1 gusting 6 7.8
2020-Jan-27 18:08 199 0 gusting 6 7.8
2020-Jan-27 18:03 360 7.8
2020-Jan-27 17:58 217 1 gusting 4 7.8
2020-Jan-27 17:53 234 0 gusting 3 7.8
2020-Jan-27 17:48 246 7.8
2020-Jan-27 17:43 021 0 gusting 4 7.8
2020-Jan-27 17:38 244 0 gusting 4 8.3
2020-Jan-27 17:33 336 8.3
2020-Jan-27 17:28 289 8.3
2020-Jan-27 17:23 211 1 gusting 5 8.3
2020-Jan-27 17:18 220 8.3
2020-Jan-27 17:13 213 0 gusting 5 7.8
2020-Jan-27 17:08 216 1 gusting 4 7.8
2020-Jan-27 17:03 233 7.8
2020-Jan-27 16:58 203 0 gusting 6 7.8
2020-Jan-27 16:53 215 0 gusting 5 7.8
2020-Jan-27 16:48 217 1 gusting 6 7.8
2020-Jan-27 16:43 212 0 gusting 6 7.8
2020-Jan-27 16:38 224 1 gusting 6 7.8
2020-Jan-27 16:33 229 0 gusting 5 7.8
2020-Jan-27 16:28 219 7.8
2020-Jan-27 16:23 219 0 gusting 6 7.8
2020-Jan-27 16:18 213 0 gusting 6 7.8
2020-Jan-27 16:13 221 0 gusting 5 7.8
2020-Jan-27 16:08 249 7.8
2020-Jan-27 16:03 226 3 gusting 7 7.2
2020-Jan-27 15:58 275 7.2
2020-Jan-27 15:53 233 1 gusting 4 7.2
2020-Jan-27 15:48 215 6.7
2020-Jan-27 15:43 220 6.7
2020-Jan-27 15:38 219 6.7
2020-Jan-27 15:33 224 6.1
2020-Jan-27 15:28 218 6.1
2020-Jan-27 15:23 218 6.1
2020-Jan-27 15:18 221 0 gusting 4 6.1
2020-Jan-27 15:13 221 1 gusting 5 5.6
2020-Jan-27 15:08 222 5.6
2020-Jan-27 15:03 223 0 gusting 3 5.6
2020-Jan-27 14:58 223 5.6
2020-Jan-27 14:53 223 5.6
2020-Jan-27 14:48 215 5.6
2020-Jan-27 14:43 215 5.0
2020-Jan-27 14:38 215 0 gusting 1 5.0
2020-Jan-27 14:33 215 5.0
2020-Jan-27 14:28 213 5.0
2020-Jan-27 14:23 203 4.4
2020-Jan-27 14:18 202 4.4
2020-Jan-27 14:13 202 4.4
2020-Jan-27 14:08 202 4.4
2020-Jan-27 14:03 203 3.9
2020-Jan-27 13:58 203 2 gusting 7 3.9
2020-Jan-27 13:53 204 3.9
2020-Jan-27 13:48 190 0 gusting 3 3.9
2020-Jan-27 13:43 189 3.9
2020-Jan-27 13:38 201 3.9
2020-Jan-27 13:33 201 3.9
2020-Jan-27 13:28 201 0 gusting 4 3.9
2020-Jan-27 13:23 229 3.9
2020-Jan-27 13:18 230 3.9
2020-Jan-27 13:13 221 3.9
2020-Jan-27 13:08 221 3.3
2020-Jan-27 13:03 221 3.3
2020-Jan-27 12:58 221 3.3
2020-Jan-27 12:48 221 2.8
2020-Jan-27 12:43 221 2.8
2020-Jan-27 12:38 221 2.2
2020-Jan-27 12:33 220 0 gusting 3 2.2
2020-Jan-27 12:28 220 0 gusting 1 2.2
2020-Jan-27 12:23 220 2.2
2020-Jan-27 12:18 220 2.2
2020-Jan-27 12:13 220 2.2
2020-Jan-27 12:08 220 2.2
2020-Jan-27 12:03 220 2.2
2020-Jan-27 11:58 220 2.2
2020-Jan-27 11:53 232 2.2
2020-Jan-27 11:48 232 2.2
2020-Jan-27 11:43 236 2.2
2020-Jan-27 11:38 200 1.7
2020-Jan-27 11:33 200 1.7
2020-Jan-27 11:28 201 1.7
2020-Jan-27 11:23 200 1.1
2020-Jan-27 11:18 200 1.1
2020-Jan-27 11:13 201 1.1
2020-Jan-27 11:08 200 1.1
2020-Jan-27 11:03 201 1.1
2020-Jan-27 10:58 200 1.1
2020-Jan-27 10:53 201 1.1
2020-Jan-27 10:48 201 1.1
2020-Jan-27 10:43 201 1.1
2020-Jan-27 10:38 201 1.1
2020-Jan-27 10:33 201 1.1
2020-Jan-27 10:28 201 1.1
2020-Jan-27 10:23 201 1.1
2020-Jan-27 10:18 201 0 gusting 0 1.1
2020-Jan-27 10:13 201 1.1
2020-Jan-27 10:08 201 1.1
2020-Jan-27 10:03 201 1.7
2020-Jan-27 09:58 201 1.7
2020-Jan-27 09:53 201 1.7
2020-Jan-27 09:48 201 1.7
2020-Jan-27 09:43 201 1.7
2020-Jan-27 09:38 201 1 gusting 4 1.7
2020-Jan-27 09:33 210 1.7
2020-Jan-27 09:28 210 1.7
2020-Jan-27 09:23 210 1.7
2020-Jan-27 09:18 210 1.7
2020-Jan-27 09:13 210 1.7
2020-Jan-27 09:08 210 1.7
2020-Jan-27 09:03 210 1.7
2020-Jan-27 08:58 210 2.2
2020-Jan-27 08:53 210 2.2
2020-Jan-27 08:48 210 0 gusting 43 2.2
2020-Jan-27 08:43 210 6 gusting 43 2.2
2020-Jan-27 08:38 210 2.2
2020-Jan-27 08:33 210 2.2
2020-Jan-27 08:28 213 0 gusting 8 2.2
2020-Jan-27 08:23 215 1 gusting 4 2.2
2020-Jan-27 08:18 216 2.2
2020-Jan-27 08:13 216 2.2
2020-Jan-27 08:08 216 2.8
2020-Jan-27 08:03 216 2.8
2020-Jan-27 07:58 216 2.8
2020-Jan-27 07:53 216 2.8
2020-Jan-27 07:48 216 2.8
2020-Jan-27 07:43 216 2.8
2020-Jan-27 07:38 216 3.3
2020-Jan-27 07:33 240 3.3
2020-Jan-27 07:28 240 3.3
2020-Jan-27 07:23 240 3.3
2020-Jan-27 07:18 243 3.9
2020-Jan-27 07:13 244 3.9
2020-Jan-27 07:08 244 3.9
2020-Jan-27 07:03 244 3.9
2020-Jan-27 06:58 244 3.9
2020-Jan-27 06:53 244 3.9
2020-Jan-27 06:48 244 3.9
2020-Jan-27 06:43 244 3.9
2020-Jan-27 06:38 244 3.9
2020-Jan-27 06:33 244 3.9
2020-Jan-27 06:28 244 3.9
2020-Jan-27 06:23 244 3.9
2020-Jan-27 06:18 245 0 gusting 3 3.3
2020-Jan-27 06:13 248 3.3
2020-Jan-27 06:08 248 3.3
2020-Jan-27 06:03 248 2.8
2020-Jan-27 05:58 248 2.8
2020-Jan-27 05:53 248 2.2
2020-Jan-27 05:48 248 2.2
2020-Jan-27 05:43 248 2.2
2020-Jan-27 05:38 248 1.7
2020-Jan-27 05:33 248 1.7
2020-Jan-27 05:28 248 1.7
2020-Jan-27 05:23 248 1.7
2020-Jan-27 05:18 248 1.7
2020-Jan-27 05:13 248 2.2
2020-Jan-27 05:08 248 2.2
2020-Jan-27 05:03 248 2.2
2020-Jan-27 04:58 248 2.2
2020-Jan-27 04:53 248 2.2
2020-Jan-27 04:48 248 1.7
2020-Jan-27 04:43 248 1.7
2020-Jan-27 04:38 248 1.7
2020-Jan-27 04:33 248 1.7
2020-Jan-27 04:28 248 1.7
2020-Jan-27 04:23 248 2.2
2020-Jan-27 04:18 248 2.2
2020-Jan-27 04:13 248 2.2
2020-Jan-27 04:08 248 2.2
2020-Jan-27 04:03 248 2.2
2020-Jan-27 03:58 248 2.8
2020-Jan-27 03:53 248 2.8
2020-Jan-27 03:48 248 2.8
2020-Jan-27 03:43 248 2.8
2020-Jan-27 03:38 248 3.3
2020-Jan-27 03:33 248 3.3
2020-Jan-27 03:28 248 3.3
2020-Jan-27 03:23 248 3.3
2020-Jan-27 03:18 248 3.3
2020-Jan-27 03:13 248 3.9
2020-Jan-27 03:08 248 3.9
2020-Jan-27 03:03 248 3.9
2020-Jan-27 02:58 248 3.9
2020-Jan-27 02:53 248 3.9
2020-Jan-27 02:48 248 4.4
2020-Jan-27 02:43 248 4.4
2020-Jan-27 02:38 248 4.4
2020-Jan-27 02:33 248 4.4
2020-Jan-27 02:28 248 4.4
2020-Jan-27 02:23 248 4.4
2020-Jan-27 02:18 248 4.4
2020-Jan-27 02:13 248 4.4
2020-Jan-27 02:08 248 4.4
2020-Jan-27 02:03 248 5.0
2020-Jan-27 01:58 248 5.0
2020-Jan-27 01:53 248 5.0
2020-Jan-27 01:48 248 5.0
2020-Jan-27 01:43 248 5.0
2020-Jan-27 01:38 248 5.0
2020-Jan-27 01:33 248 5.0
2020-Jan-27 01:28 204 5.0
2020-Jan-27 01:23 204 0 gusting 3 5.0
2020-Jan-27 01:18 219 5.0
2020-Jan-27 01:13 219 5.0
2020-Jan-27 01:08 221 5.0
2020-Jan-27 01:03 221 5.0
2020-Jan-27 00:58 221 5.0
2020-Jan-27 00:53 217 5.0
2020-Jan-27 00:48 226 5.0
2020-Jan-27 00:43 226 5.0
2020-Jan-27 00:38 227 5.6
2020-Jan-27 00:33 226 5.6
2020-Jan-27 00:28 226 5.6
2020-Jan-27 00:23 230 5.6
2020-Jan-27 00:18 197 0 gusting 5 5.6
2020-Jan-27 00:13 215 5.6
2020-Jan-27 00:08 138 0 gusting 10 5.6
2020-Jan-27 00:03 212 5.6
2020-Jan-26 23:58 227 1 gusting 14 5.6
2020-Jan-26 23:53 301 2 gusting 14 5.6
2020-Jan-26 23:48 235 1 gusting 9 5.6
2020-Jan-26 23:43 244 5.6
2020-Jan-26 23:38 238 5.6
2020-Jan-26 23:33 230 5.6
2020-Jan-26 23:28 241 0 gusting 4 5.6
2020-Jan-26 23:23 229 5.6
2020-Jan-26 23:18 230 0 gusting 7 6.1
2020-Jan-26 23:13 210 0 gusting 7 6.1
2020-Jan-26 23:08 206 0 gusting 6 6.1
2020-Jan-26 23:03 222 6.1
2020-Jan-26 22:58 302 0 gusting 6 6.1
2020-Jan-26 22:53 219 6.1
2020-Jan-26 22:48 221 6.1
2020-Jan-26 22:43 223 6.1
2020-Jan-26 22:38 190 0 gusting 6 6.1
2020-Jan-26 22:33 237 0 gusting 6 6.1
2020-Jan-26 22:28 214 0 gusting 5 6.1
2020-Jan-26 22:23 213 2 gusting 5 6.1
2020-Jan-26 22:18 270 0 gusting 3 6.1
2020-Jan-26 22:13 227 1 gusting 3 6.1
2020-Jan-26 22:08 248 0 gusting 3 6.7
2020-Jan-26 22:03 251 6.7